Time,TemperatureF,DewpointF,PressureIn,WindDirection,WindDirectionDegrees,WindSpeedMPH,WindSpeedGustMPH,Humidity,HourlyPrecipIn,Conditions,Clouds,dailyrainin,SoftwareType,DateUTC
2013-03-31 00:32:00,35.0,29.0,-100.00,NE,40,3.0,-999.0,78,-99.99,,,-99.99,,2013-03-31 06:32:00,
2013-03-31 00:42:00,35.0,29.0,-100.00,NE,40,3.0,-999.0,78,-99.99,,,-99.99,,2013-03-31 06:42:00,
2013-03-31 00:52:00,35.0,29.0,-100.00,NE,40,3.0,-999.0,78,-99.99,,,-99.99,,2013-03-31 06:52:00,
2013-03-31 02:32:00,35.0,27.0,-100.00,NE,50,2.0,-999.0,72,-99.99,,,-99.99,,2013-03-31 08:32:00,
2013-03-31 02:42:00,35.0,27.0,-100.00,NE,50,2.0,-999.0,72,-99.99,,,-99.99,,2013-03-31 08:42:00,
2013-03-31 02:52:00,35.0,27.0,-100.00,NE,50,2.0,-999.0,72,-99.99,,,-99.99,,2013-03-31 08:52:00,
2013-03-31 03:33:00,32.0,27.0,-100.00,NE,40,8.0,-999.0,81,-99.99,,,-99.99,,2013-03-31 09:33:00,
2013-03-31 03:42:00,32.0,27.0,-100.00,NE,40,8.0,-999.0,81,-99.99,,,-99.99,,2013-03-31 09:42:00,
2013-03-31 03:53:00,32.0,27.0,-100.00,NE,40,8.0,-999.0,81,-99.99,,,-99.99,,2013-03-31 09:53:00,
2013-03-31 04:32:00,32.0,25.0,-100.00,ENE,60,5.0,-999.0,74,-99.99,,,-99.99,,2013-03-31 10:32:00,
2013-03-31 04:42:00,32.0,25.0,-100.00,ENE,60,5.0,-999.0,74,-99.99,,,-99.99,,2013-03-31 10:42:00,
2013-03-31 04:52:00,32.0,25.0,-100.00,ENE,60,5.0,-999.0,74,-99.99,,,-99.99,,2013-03-31 10:52:00,
2013-03-31 05:32:00,31.0,24.0,-100.00,NE,50,8.0,-999.0,75,-99.99,,,-99.99,,2013-03-31 11:32:00,
2013-03-31 05:42:00,31.0,24.0,-100.00,NE,50,8.0,-999.0,75,-99.99,,,-99.99,,2013-03-31 11:42:00,
2013-03-31 05:52:00,31.0,24.0,-100.00,NE,50,8.0,-999.0,75,-99.99,,,-99.99,,2013-03-31 11:52:00,
2013-03-31 08:32:00,30.0,22.0,-100.00,ENE,60,6.0,-999.0,71,-99.99,,,-99.99,,2013-03-31 14:32:00,
2013-03-31 08:42:00,30.0,22.0,-100.00,ENE,60,6.0,-999.0,71,-99.99,,,-99.99,,2013-03-31 14:42:00,
2013-03-31 08:52:00,30.0,22.0,-100.00,ENE,60,6.0,-999.0,71,-99.99,,,-99.99,,2013-03-31 14:52:00,
2013-03-31 09:33:00,32.0,20.0,-100.00,NE,50,7.0,-999.0,60,-99.99,,,-99.99,,2013-03-31 15:33:00,
2013-03-31 09:43:00,32.0,20.0,-100.00,NE,50,7.0,-999.0,60,-99.99,,,-99.99,,2013-03-31 15:43:00,
2013-03-31 09:53:00,32.0,20.0,-100.00,NE,50,7.0,-999.0,60,-99.99,,,-99.99,,2013-03-31 15:53:00,
2013-03-31 10:33:00,30.0,25.0,-100.00,NE,40,14.0,-999.0,81,-99.99,,,-99.99,,2013-03-31 16:33:00,
2013-03-31 10:43:00,30.0,25.0,-100.00,NE,40,14.0,-999.0,81,-99.99,,,-99.99,,2013-03-31 16:43:00,
2013-03-31 10:53:00,30.0,25.0,-100.00,NE,40,14.0,-999.0,81,-99.99,,,-99.99,,2013-03-31 16:53:00,
2013-03-31 11:32:00,31.0,26.0,-100.00,NE,50,7.0,-999.0,81,-99.99,,,-99.99,,2013-03-31 17:32:00,
2013-03-31 11:43:00,31.0,26.0,-100.00,NE,50,7.0,-999.0,81,-99.99,,,-99.99,,2013-03-31 17:43:00,
2013-03-31 11:52:00,31.0,26.0,-100.00,NE,50,7.0,-999.0,81,-99.99,,,-99.99,,2013-03-31 17:52:00,
2013-03-31 12:32:00,32.0,28.0,-100.00,NE,50,6.0,-999.0,85,-99.99,,,-99.99,,2013-03-31 18:32:00,
2013-03-31 12:42:00,32.0,28.0,-100.00,NE,50,6.0,-999.0,85,-99.99,,,-99.99,,2013-03-31 18:42:00,
2013-03-31 12:52:00,32.0,28.0,-100.00,NE,50,6.0,-999.0,85,-99.99,,,-99.99,,2013-03-31 18:52:00,
2013-03-31 13:33:00,33.0,25.0,-100.00,ENE,70,3.0,-999.0,71,-99.99,,,-99.99,,2013-03-31 19:33:00,
2013-03-31 13:42:00,33.0,25.0,-100.00,ENE,70,3.0,-999.0,71,-99.99,,,-99.99,,2013-03-31 19:42:00,
2013-03-31 13:53:00,33.0,25.0,-100.00,ENE,70,3.0,-999.0,71,-99.99,,,-99.99,,2013-03-31 19:53:00,
2013-03-31 14:33:00,34.0,26.0,-100.00,NE,40,8.0,-999.0,72,-99.99,,,-99.99,,2013-03-31 20:33:00,
2013-03-31 14:43:00,34.0,26.0,-100.00,NE,40,8.0,-999.0,72,-99.99,,,-99.99,,2013-03-31 20:43:00,
2013-03-31 14:52:00,34.0,26.0,-100.00,NE,40,8.0,-999.0,72,-99.99,,,-99.99,,2013-03-31 20:52:00,
2013-03-31 15:34:00,36.0,26.0,-100.00,NE,50,8.0,-999.0,66,-99.99,,,-99.99,,2013-03-31 21:34:00,
2013-03-31 15:43:00,36.0,26.0,-100.00,NE,50,8.0,-999.0,66,-99.99,,,-99.99,,2013-03-31 21:43:00,
2013-03-31 15:53:00,36.0,26.0,-100.00,NE,50,8.0,-999.0,66,-99.99,,,-99.99,,2013-03-31 21:53:00,
2013-03-31 16:33:00,35.0,25.0,-100.00,ENE,60,7.0,-999.0,66,-99.99,,,-99.99,,2013-03-31 22:33:00,
2013-03-31 16:42:00,35.0,25.0,-100.00,ENE,60,7.0,-999.0,66,-99.99,,,-99.99,,2013-03-31 22:42:00,
2013-03-31 16:53:00,35.0,25.0,-100.00,ENE,60,7.0,-999.0,66,-99.99,,,-99.99,,2013-03-31 22:53:00,
2013-03-31 17:32:00,36.0,26.0,-100.00,ENE,60,8.0,-999.0,66,-99.99,,,-99.99,,2013-03-31 23:32:00,
2013-03-31 17:42:00,36.0,26.0,-100.00,ENE,60,8.0,-999.0,66,-99.99,,,-99.99,,2013-03-31 23:42:00,
2013-03-31 17:53:00,36.0,26.0,-100.00,ENE,60,8.0,-999.0,66,-99.99,,,-99.99,,2013-03-31 23:53:00,
2013-03-31 18:32:00,34.0,26.0,-100.00,ENE,60,6.0,-999.0,72,-99.99,,,-99.99,,2013-04-01 00:32:00,
2013-03-31 18:43:00,34.0,26.0,-100.00,ENE,60,6.0,-999.0,72,-99.99,,,-99.99,,2013-04-01 00:43:00,
2013-03-31 18:52:00,34.0,26.0,-100.00,ENE,60,6.0,-999.0,72,-99.99,,,-99.99,,2013-04-01 00:52:00,
2013-03-31 19:32:00,34.0,26.0,-100.00,ENE,60,3.0,-999.0,72,-99.99,,,-99.99,,2013-04-01 01:32:00,
2013-03-31 19:42:00,34.0,26.0,-100.00,ENE,60,3.0,-999.0,72,-99.99,,,-99.99,,2013-04-01 01:42:00,
2013-03-31 19:52:00,34.0,26.0,-100.00,ENE,60,3.0,-999.0,72,-99.99,,,-99.99,,2013-04-01 01:52:00,
2013-03-31 20:33:00,32.0,27.0,-100.00,East,100,3.0,-999.0,81,-99.99,,,-99.99,,2013-04-01 02:33:00,
2013-03-31 20:42:00,32.0,27.0,-100.00,East,100,3.0,-999.0,81,-99.99,,,-99.99,,2013-04-01 02:42:00,
2013-03-31 20:52:00,32.0,27.0,-100.00,East,100,3.0,-999.0,81,-99.99,,,-99.99,,2013-04-01 02:52:00,
2013-03-31 21:34:00,30.0,26.0,-100.00,East,80,3.0,-999.0,84,-99.99,,,-99.99,,2013-04-01 03:34:00,
2013-03-31 21:43:00,30.0,26.0,-100.00,East,80,3.0,-999.0,84,-99.99,,,-99.99,,2013-04-01 03:43:00,
2013-03-31 21:53:00,30.0,26.0,-100.00,East,80,3.0,-999.0,84,-99.99,,,-99.99,,2013-04-01 03:53:00,
2013-03-31 22:33:00,29.0,25.0,-100.00,SE,140,3.0,-999.0,84,-99.99,,,-99.99,,2013-04-01 04:33:00,
2013-03-31 22:43:00,29.0,25.0,-100.00,SE,140,3.0,-999.0,84,-99.99,,,-99.99,,2013-04-01 04:43:00,
2013-03-31 22:53:00,29.0,25.0,-100.00,SE,140,3.0,-999.0,84,-99.99,,,-99.99,,2013-04-01 04:53:00,
2013-03-31 23:32:00,27.0,25.0,-100.00,ENE,70,2.0,-999.0,92,-99.99,,,-99.99,,2013-04-01 05:32:00,
2013-03-31 23:43:00,27.0,25.0,-100.00,ENE,70,2.0,-999.0,92,-99.99,,,-99.99,,2013-04-01 05:43:00,
2013-03-31 23:52:00,27.0,25.0,-100.00,ENE,70,2.0,-999.0,92,-99.99,,,-99.99,,2013-04-01 05:52:00,